• în România
  • Lista ţărilor
  • Pe 7 zile
  • Temperatura apei
  • Hartă satelitară
  • Meteo pe hartă
  • Widget-uri
  • user-avatar
    Intrare

    Meteo pe oră la Konstantyna

    Astăzi, 20 August, Duminică

    Timp Temperatura Precipitaţii Vânt Presiune Umiditate
    00:00 +27°C° 0 mm 1 m/s 712 mmHg 60%
    01:00 +26°C° 0 mm 1 m/s 712 mmHg 62%
    02:00 +26°C° 0 mm 1 m/s 712 mmHg 64%
    03:00 +25°C° 0 mm 1 m/s 712 mmHg 66%
    04:00 +25°C° 0 mm 1 m/s 712 mmHg 65%
    05:00 +25°C° 0 mm 1 m/s 712 mmHg 64%
    06:00 +25°C° 0 mm 1 m/s 712 mmHg 63%
    07:00 +27°C° 0 mm 1 m/s 713 mmHg 55%
    08:00 +28°C° 0 mm 2 m/s 713 mmHg 48%
    09:00 +30°C° 0 mm 2 m/s 713 mmHg 40%
    10:00 +31°C° 0 mm 3 m/s 713 mmHg 38%
    11:00 +33°C° 0 mm 3 m/s 713 mmHg 35%
    12:00 +34°C° 0 mm 4 m/s 713 mmHg 33%
    13:00 +34°C° 0 mm 4 m/s 713 mmHg 34%
    14:00 +34°C° 0 mm 4 m/s 713 mmHg 35%
    15:00 +34°C° 0 mm 5 m/s 713 mmHg 35%
    16:00 +32°C° 0 mm 5 m/s 713 mmHg 40%
    17:00 +30°C° 0 mm 4 m/s 712 mmHg 44%
    18:00 +28°C° 0 mm 4 m/s 712 mmHg 48%
    19:00 +27°C° 0 mm 3 m/s 713 mmHg 52%
    20:00 +26°C° 0 mm 3 m/s 713 mmHg 56%
    21:00 +25°C° 0 mm 2 m/s 713 mmHg 60%
    22:00 +25°C° 0 mm 2 m/s 713 mmHg 61%
    23:00 +24°C° 0 mm 1 m/s 713 mmHg 62%

    Mâine, 21 August, Luni

    Timp Temperatura Precipitaţii Vânt Presiune Umiditate
    00:00 +24°C° 0 mm 1 m/s 713 mmHg 64%
    01:00 +24°C° 0 mm 1 m/s 712 mmHg 65%
    02:00 +23°C° 0 mm 1 m/s 712 mmHg 65%
    03:00 +23°C° 0 mm 1 m/s 712 mmHg 66%
    04:00 +23°C° 0 mm 1 m/s 712 mmHg 65%
    05:00 +23°C° 0 mm 1 m/s 712 mmHg 64%
    06:00 +23°C° 0 mm 1 m/s 712 mmHg 63%
    07:00 +24°C° 0 mm 1 m/s 712 mmHg 56%
    08:00 +26°C° 0 mm 2 m/s 713 mmHg 49%
    09:00 +27°C° 0 mm 2 m/s 713 mmHg 42%
    10:00 +28°C° 0 mm 3 m/s 713 mmHg 38%
    11:00 +30°C° 0 mm 3 m/s 713 mmHg 34%
    12:00 +31°C° 0 mm 3 m/s 713 mmHg 30%
    13:00 +32°C° 0 mm 4 m/s 712 mmHg 29%
    14:00 +32°C° 0 mm 4 m/s 712 mmHg 29%
    15:00 +32°C° 0 mm 5 m/s 712 mmHg 28%
    16:00 +30°C° 0 mm 4 m/s 712 mmHg 32%
    17:00 +28°C° 0 mm 4 m/s 711 mmHg 36%
    18:00 +27°C° 0 mm 4 m/s 711 mmHg 40%
    19:00 +26°C° 0 mm 3 m/s 712 mmHg 45%
    20:00 +25°C° 0 mm 2 m/s 712 mmHg 50%
    21:00 +24°C° 0 mm 1 m/s 712 mmHg 55%
    22:00 +24°C° 0 mm 1 m/s 712 mmHg 57%
    23:00 +23°C° 0 mm 1 m/s 712 mmHg 58%

    Poimâine, 22 August, Marţi

    Timp Temperatura Precipitaţii Vânt Presiune Umiditate
    00:00 +23°C° 0 mm 1 m/s 711 mmHg 60%
    01:00 +20°C° 0 mm 0 m/s 711 mmHg 61%
    02:00 +20°C° 0 mm 0 m/s 711 mmHg 62%
    03:00 +20°C° 0 mm 0 m/s 711 mmHg 62%
    04:00 +20°C° 0 mm 0 m/s 711 mmHg 60%
    05:00 +20°C° 0 mm 0 m/s 711 mmHg 57%
    06:00 +20°C° 0 mm 0 m/s 711 mmHg 55%
    07:00 +22°C° 0 mm 0 m/s 712 mmHg 46%
    08:00 +24°C° 0 mm 0 m/s 712 mmHg 38%
    09:00 +26°C° 0 mm 0 m/s 713 mmHg 29%
    10:00 +30°C° 0 mm 1 m/s 713 mmHg 26%
    11:00 +31°C° 0 mm 1 m/s 712 mmHg 23%
    12:00 +32°C° 0 mm 2 m/s 712 mmHg 20%
    13:00 +34°C° 0 mm 2 m/s 712 mmHg 21%
    14:00 +34°C° 0 mm 3 m/s 712 mmHg 22%
    15:00 +34°C° 0 mm 3 m/s 711 mmHg 23%
    16:00 +33°C° 0 mm 3 m/s 711 mmHg 28%
    17:00 +30°C° 0 mm 3 m/s 711 mmHg 34%
    18:00 +29°C° 0 mm 4 m/s 711 mmHg 39%
    19:00 +28°C° 0 mm 3 m/s 711 mmHg 45%
    20:00 +27°C° 0 mm 2 m/s 711 mmHg 51%
    21:00 +26°C° 0 mm 2 m/s 711 mmHg 57%
    22:00 +25°C° 0 mm 1 m/s 711 mmHg 58%
    23:00 +25°C° 0 mm 1 m/s 711 mmHg 60%

    23 August, Miercuri

    Timp Temperatura Precipitaţii Vânt Presiune Umiditate
    00:00 +25°C° 0 mm 1 m/s 711 mmHg 62%
    01:00 +24°C° 0 mm 1 m/s 711 mmHg 63%
    02:00 +24°C° 0 mm 1 m/s 710 mmHg 64%
    03:00 +24°C° 0 mm 1 m/s 710 mmHg 65%
    04:00 +24°C° 0 mm 1 m/s 710 mmHg 64%
    05:00 +24°C° 0 mm 1 m/s 711 mmHg 63%
    06:00 +24°C° 0 mm 1 m/s 711 mmHg 62%
    07:00 +26°C° 0 mm 1 m/s 711 mmHg 55%
    08:00 +28°C° 0 mm 1 m/s 712 mmHg 47%
    09:00 +30°C° 0 mm 1 m/s 712 mmHg 39%
    10:00 +31°C° 0 mm 1 m/s 712 mmHg 35%
    11:00 +34°C° 0 mm 2 m/s 712 mmHg 31%
    12:00 +35°C° 0 mm 3 m/s 712 mmHg 27%
    13:00 +35°C° 0 mm 3 m/s 712 mmHg 28%
    14:00 +35°C° 0 mm 3 m/s 712 mmHg 28%
    15:00 +35°C° 0 mm 4 m/s 711 mmHg 28%
    16:00 +34°C° 0 mm 4 m/s 711 mmHg 33%
    17:00 +33°C° 0 mm 4 m/s 711 mmHg 37%
    18:00 +32°C° 0 mm 4 m/s 711 mmHg 42%
    19:00 +30°C° 0 mm 3 m/s 711 mmHg 45%
    20:00 +29°C° 0 mm 2 m/s 711 mmHg 49%
    21:00 +28°C° 0 mm 2 m/s 711 mmHg 52%
    22:00 +27°C° 0 mm 1 m/s 711 mmHg 53%
    23:00 +27°C° 0 mm 1 m/s 711 mmHg 54%

    24 August, Joi

    Timp Temperatura Precipitaţii Vânt Presiune Umiditate
    00:00 +27°C° 0 mm 1 m/s 711 mmHg 54%
    01:00 +26°C° 0 mm 1 m/s 711 mmHg 54%
    02:00 +26°C° 0 mm 1 m/s 711 mmHg 54%
    03:00 +26°C° 0 mm 1 m/s 710 mmHg 55%
    04:00 +26°C° 0 mm 1 m/s 711 mmHg 53%
    05:00 +27°C° 0 mm 1 m/s 711 mmHg 51%
    06:00 +27°C° 0 mm 1 m/s 711 mmHg 49%
    07:00 +29°C° 0 mm 1 m/s 712 mmHg 44%
    08:00 +31°C° 0 mm 2 m/s 712 mmHg 39%
    09:00 +32°C° 0 mm 2 m/s 713 mmHg 33%
    10:00 +35°C° 0 mm 2 m/s 713 mmHg 30%
    11:00 +36°C° 0 mm 2 m/s 712 mmHg 27%
    12:00 +37°C° 0 mm 3 m/s 712 mmHg 24%
    13:00 +37°C° 0 mm 3 m/s 712 mmHg 24%
    14:00 +37°C° 0 mm 4 m/s 712 mmHg 23%
    15:00 +37°C° 0 mm 4 m/s 711 mmHg 23%
    16:00 +36°C° 0 mm 4 m/s 711 mmHg 27%
    17:00 +35°C° 0 mm 4 m/s 711 mmHg 30%
    18:00 +34°C° 0 mm 3 m/s 711 mmHg 34%
    19:00 +33°C° 0 mm 3 m/s 711 mmHg 37%
    20:00 +31°C° 0 mm 2 m/s 711 mmHg 41%
    21:00 +30°C° 0 mm 2 m/s 711 mmHg 44%
    22:00 +30°C° 0 mm 1 m/s 711 mmHg 44%
    23:00 +29°C° 0 mm 1 m/s 711 mmHg 44%

    25 August, Vineri

    Timp Temperatura Precipitaţii Vânt Presiune Umiditate
    00:00 +29°C° 0 mm 1 m/s 711 mmHg 45%
    01:00 +29°C° 0 mm 1 m/s 711 mmHg 44%
    02:00 +29°C° 0 mm 2 m/s 711 mmHg 43%
    03:00 +28°C° 0 mm 2 m/s 710 mmHg 43%
    04:00 +28°C° 0 mm 2 m/s 711 mmHg 43%
    05:00 +28°C° 0 mm 2 m/s 711 mmHg 42%
    06:00 +28°C° 0 mm 2 m/s 711 mmHg 42%
    07:00 +30°C° 0 mm 2 m/s 711 mmHg 38%
    08:00 +32°C° 0 mm 2 m/s 712 mmHg 33%
    09:00 +35°C° 0 mm 3 m/s 712 mmHg 29%
    10:00 +36°C° 0 mm 2 m/s 712 mmHg 26%
    11:00 +37°C° 0 mm 2 m/s 712 mmHg 24%
    12:00 +38°C° 0 mm 2 m/s 712 mmHg 22%
    13:00 +38°C° 0 mm 2 m/s 711 mmHg 21%
    14:00 +38°C° 0 mm 3 m/s 711 mmHg 21%
    15:00 +38°C° 0 mm 3 m/s 711 mmHg 21%
    16:00 +37°C° 0 mm 3 m/s 710 mmHg 24%
    17:00 +36°C° 0 mm 3 m/s 710 mmHg 27%
    18:00 +35°C° 0 mm 3 m/s 710 mmHg 30%
    19:00 +34°C° 0 mm 3 m/s 710 mmHg 33%
    20:00 +32°C° 0 mm 2 m/s 710 mmHg 35%
    21:00 +31°C° 0 mm 1 m/s 711 mmHg 38%
    22:00 +31°C° 0 mm 1 m/s 710 mmHg 38%
    23:00 +30°C° 0 mm 1 m/s 710 mmHg 38%
    Arată mai mult